Home   Weather   Neuss   Past weeks

Flag for Germany Past Weather in Neuss, North Rhine-Westphalia, Germany — Yesterday and Last 2 Weeks

Now
36 °F

Clear.


Feels Like: 31 °F
Forecast: 36 / 48 °F
Wind: 6 mph from West

Location: Duesseldorf

Current Time: Feb 24, 2017 at 11:03:03 pm

Latest Report: Feb 24, 2017 at 10:20 pm


Visibility: 10 mi

Pressure: 30.12 "Hg

Humidity: 87%

Dew Point: 32 °F

Location of NeussLocation

Past Weather in Neuss — Graph

°F

Neuss Temperature Yesterday

Maximum temperature yesterday: 50 °F (at 12:20 am)
Minimum temperature yesterday: 43 °F (at 7:50 pm)
Average temperature yesterday: 48 °F

High & Low Weather Summary for the Past Weeks

 TemperatureHumidityPressure
High61 °F (Feb 15, 3:50 pm)100% (Feb 11, 7:50 pm)30.51 "Hg (Feb 11, 7:50 pm)
Low27 °F (Feb 13, 5:50 am)38% (Feb 14, 3:50 pm)29.24 "Hg (Feb 23, 4:20 pm)
Average43 °F78%30.14 "Hg
* Reported Feb 9 9:20 pm — Feb 24 9:50 pm, Neuss, Weather by CustomWeather, © 2017

Note: Actual official high and low records may vary slightly from our data, if they occured in-between our weather recording intervals... More about our weather records

Advertising

Neuss Weather History for the Previous 24 Hours

Scroll right to see more
 ConditionsComfort  
Time TempWeatherWind HumidityBarometerVisibility
9:50 pm
Fri, Feb 24
36 °FClear.6 mph87%30.09 "Hg10 mi
9:20 pm37 °FClear.6 mph81%30.09 "Hg10 mi
8:50 pm37 °FClear.5 mph81%30.09 "Hg10 mi
8:20 pm37 °FClear.3 mph81%30.09 "Hg10 mi
7:50 pm41 °FPassing clouds.5 mph70%30.09 "HgN/A
7:20 pm41 °FPartly cloudy.7 mph76%30.07 "HgN/A
6:50 pm43 °FSprinkles. Passing clouds.8 mph71%30.04 "HgN/A
6:20 pm43 °FPassing clouds.8 mph66%30.04 "HgN/A
5:50 pm43 °FScattered clouds.7 mph66%30.01 "HgN/A
5:20 pm45 °FPassing clouds.9 mph61%30.01 "HgN/A
4:50 pm45 °FPassing clouds.12 mph61%29.98 "HgN/A
4:20 pm45 °FPartly sunny.9 mph61%29.98 "HgN/A
3:50 pm45 °FPartly sunny.13 mph71%29.98 "HgN/A
3:20 pm45 °FScattered clouds.12 mph61%29.95 "HgN/A
2:50 pm45 °FPassing clouds.10 mph66%29.95 "HgN/A
2:20 pm43 °FPartly sunny.14 mph66%29.95 "HgN/A
1:50 pm45 °FPartly sunny.14 mph61%29.95 "HgN/A
1:20 pm45 °FScattered clouds.13 mph53%29.95 "HgN/A
12:50 pm45 °FScattered clouds.8 mph57%29.92 "HgN/A
12:20 pm43 °FScattered clouds.10 mph61%29.92 "HgN/A
11:50 am45 °FScattered clouds.10 mph61%29.92 "HgN/A
11:20 am43 °FPartly sunny.12 mph66%29.92 "HgN/A
10:50 am43 °FScattered clouds.10 mph66%29.92 "HgN/A
10:20 am43 °FPassing clouds.12 mph71%29.89 "HgN/A
9:50 am41 °FPassing clouds.14 mph76%29.89 "HgN/A
9:20 am39 °FPartly sunny.14 mph81%29.86 "HgN/A
8:50 am39 °FPartly sunny.13 mph81%29.86 "HgN/A
8:20 am37 °FScattered clouds.13 mph87%29.83 "HgN/A
7:50 am37 °FPassing clouds.10 mph87%29.80 "HgN/A
7:20 am39 °FPassing clouds.13 mph81%29.80 "HgN/A
6:50 am39 °FPartly cloudy.15 mph81%29.77 "HgN/A
6:20 am37 °FPassing clouds.9 mph87%29.74 "HgN/A
5:50 am37 °FPartly cloudy.8 mph87%29.74 "HgN/A
5:20 am37 °FPassing clouds.13 mph93%29.71 "HgN/A
4:50 am39 °FLight rain. Passing clouds.15 mph81%29.68 "HgN/A
4:20 am39 °FPassing clouds.13 mph81%29.68 "HgN/A
3:50 am41 °FPassing clouds.15 mph76%29.65 "HgN/A
3:20 am41 °FPartly cloudy.15 mph81%29.62 "HgN/A
2:50 am41 °FLight rain. Partly cloudy.18 mph81%29.62 "HgN/A
2:20 am41 °FQuite cool.21 mph81%29.59 "HgN/A
1:50 am41 °FLight rain. Mostly cloudy.26 mph81%29.56 "HgN/A
1:20 am39 °FLight rain. Mostly cloudy.23 mph87%29.50 "HgN/A
12:50 am41 °FLight rain. Overcast.37 mph81%29.45 "HgN/A
12:20 am43 °FLight rain. Passing clouds.36 mph76%29.39 "HgN/A
11:50 pm
Thu, Feb 23
43 °FLight rain. Passing clouds.32 mph81%29.36 "HgN/A
11:20 pm43 °FSprinkles. Passing clouds.29 mph76%29.36 "HgN/A
Weather by CustomWeather, © 2017

See weather overviewHow to use our weather pages